Flag for U.S.A. Weather past 2 weeks in New Salem, North Dakota, U.S.A.

Now
59 °F

Clear.


Feels Like: 59 °F
Forecast: 52 / 69 °F
Wind: 5 mph from Northwest

Location: Bismarck Municipal Airport

Current Time: Sep 20, 2014 at 1:44:48 AM

Latest Report: Sep 20, 2014 at 12:52 AM


Visibility: 10 mi

Pressure: 29.80 "Hg

Humidity: 78%

Dew point: 52 °F

Location of New SalemLocation

Historic Weather in New Salem — Graph

°F

New Salem temperature yesterday

Maximum temperature yesterday: 87 °F (at 3:52 PM)
Minimum temperature yesterday: 62 °F (at 11:52 PM)
Average temperature yesterday: 72 °F

Past Weeks' High & Low Weather Summary

 TemperatureHumidityPressure
High90 °F (Sep 8, 4:52 PM)100% (Sep 8, 7:54 AM)30.54 "Hg (Sep 8, 7:54 AM)
Low31 °F (Sep 15, 6:52 AM)23% (Sep 8, 4:52 PM)29.57 "Hg (Sep 19, 4:52 AM)
Average56 °F68%30.07 "Hg
* Reported Sep 4 11:52 PM — Sep 19 11:52 PM, New Salem, Weather by CustomWeather, © 2014

Note: Actual official high and low records may vary slightly from our data, if they occured in-between our weather recording intervals... More about our weather records

Advertising

New Salem weather history for previous 24 hours

 ConditionsComfort  
Time TempWeatherWind HumidityBarometerVisibility
11:52 PM
Sep 19
62 °FClear.6 mph73%29.80 "Hg10 mi
10:52 PM65 °FClear.6 mph66%29.79 "Hg10 mi
9:52 PM68 °FClear.10 mph61%29.77 "Hg10 mi
8:52 PM72 °FPassing clouds.8 mph53%29.74 "Hg10 mi
7:52 PM74 °FSunny.10 mph48%29.70 "Hg10 mi
6:52 PM77 °FPassing clouds.14 mph40%29.67 "Hg10 mi
5:52 PM79 °FSunny.17 mph36%29.65 "Hg10 mi
4:52 PM83 °FSunny.21 mph31%29.63 "Hg10 mi
3:52 PM87 °FSunny.23 mph27%29.61 "Hg10 mi
2:52 PM85 °FSunny.21 mph27%29.62 "Hg10 mi
1:52 PM86 °FSunny.21 mph31%29.61 "Hg10 mi
12:52 PM82 °FSunny.7 mph41%29.62 "Hg10 mi
11:52 AM77 °FSunny.9 mph52%29.62 "Hg10 mi
10:52 AM72 °FSunny.12 mph64%29.62 "Hg10 mi
9:52 AM72 °FSunny.13 mph68%29.60 "Hg10 mi
8:52 AM68 °FPartly sunny.8 mph78%29.59 "Hg10 mi
7:52 AM65 °FPassing clouds.7 mph85%29.58 "Hg10 mi
6:52 AM67 °FLight rain. Overcast.14 mph79%29.60 "Hg10 mi
5:52 AM68 °FPassing clouds.13 mph78%29.59 "Hg10 mi
4:52 AM64 °FPassing clouds.12 mph94%29.57 "Hg10 mi
3:52 AM65 °FPassing clouds.5 mph91%29.59 "Hg10 mi
2:52 AM66 °FClear.5 mph81%29.62 "Hg10 mi
1:52 AM67 °FClear.8 mph79%29.62 "Hg10 mi
Weather by CustomWeather, © 2014

See weather overviewHow to use our weather pages